Other Surface Observations
Issued by NWS

Current Version | Previous Version | Text Only | Print | Product List | Glossary On
Versions: 1 2 3 4 5 6 7 8 9 10 11 12 13 14 15 16 17 18 19 20 21 22 23 24 25 26 27 28 29 30 31 32 33 34 35 36 37 38 39 40 41 42 43 44 45 46 47 48 49 50
000
SXUS52 KTAE 201205
OSOTAE
OSOTAE
North Florida/South Alabama/Southwest Georgia Weather Roundup
National Weather Service Tallahassee Florida
800 AM EDT SAT SEP 20 2014

Note: "fair" indicates few or no clouds below 12,000 feet with no
significant weather and/or obstructions to visibility.

!FLZ017-115-028-034-025-201300
...North Florida...

CITY           SKY/WX    TMP DP  RH WIND       PRES   REMARKS
TALLAHASSEE    CLOUDY    70  68  93 NE6       30.00R
APALACHICOLA   PTCLDY    72  68  87 NE10      29.97R
PERRY          CLOUDY    68  68 100 NE6       29.99R
CROSS CITY       N/A     70  68  93 N3        29.96R
HOMERVILLE     CLOUDY    72  70  94 NE6       30.00S
JACKSONVILLE   CLOUDY    71  71 100 NE3       29.95F
$$

!FLZ112-006-005-002-011-201300
...Florida Panhandle...

CITY           SKY/WX    TMP DP  RH WIND       PRES   REMARKS
MARIANNA       CLOUDY    70  70 100 NE9       30.01R
BONIFAY        CLOUDY    69  68  96 MISG      30.03R
PANAMA CITY NW CLOUDY    71  68  90 NE10      29.99R
TYNDALL AFB    MOCLDY    69  69 100 NE9G17    29.99R
TYND DRONE APT PTSUNNY   69  69  99 MISG      29.97R
DE FUNIAK SPR  CLOUDY    68  67  96 NE10      30.03R
EGLIN AFB      MOCLDY    70  67  91 NE9       29.99R
DESTIN         MOCLDY    73  69  87 NE10G17   29.99R
HURLBURT       CLEAR     69  64  83 NE8       29.98R
CRESTVIEW      PTCLDY    68  67  96 NE6       30.02S FOG
PENSACOLA      CLEAR     69  67  93 E6        29.99R
$$

!ALZ063-066-201300
...South Alabama...

CITY           SKY/WX    TMP DP  RH WIND       PRES   REMARKS
DOTHAN         CLOUDY    70  67  90 NE7       30.07R
OZARK CAIRNS   CLOUDY    69  67  92 NE8       30.03S
FT RUCKER HELI CLOUDY    69  67  93 NE3       30.03R
RUCKER HELI 3  CLOUDY    68  67  96 NE6       30.06S
RUCKER HELI 2  CLOUDY    71  66  84 NE9       30.04R
FLORALA APT    CLOUDY    70  67  90 E9        30.05R
ANDALUSIA      CLOUDY    72  67  84 E9        30.03R
TROY           CLOUDY    69  66  90 E9        30.06R
EUFALA         CLOUDY    71  66  84 NE6       30.06R
MOBILE         PTCLDY    68  67  96 NE7       30.00R
$$

!GAZ120>161-201300
...Southwest and South Central Georgia...

CITY           SKY/WX    TMP DP  RH WIND       PRES   REMARKS
THOMASVILLE    CLOUDY    72  72 100 NE10      30.02S
BAINBRIDGE     CLOUDY    73  70  88 NE9       30.02R
MOODY AFB      CLOUDY    70  67  93 N9        30.00S
VALDOSTA       CLOUDY    71  68  90 N9        30.00R
MOULTRIE       CLOUDY    70  68  94 NE8       30.03S
BLAKELY        CLOUDY    72  68  88 NE6         N/A
ALBANY         CLOUDY    70  67  90 NE8       30.06R
TIFTON         CLOUDY    69  67  94 NE10      30.03F
FITZGERALD     CLOUDY    71  68  91 NE7       30.07R
CORDELE        CLOUDY    71  67  88 NE7       30.08R
AMERICUS       CLOUDY    68  66  94 NE7       30.10R
$$

!GMZ750-755-770-775-201300
...Coastal and Buoy Obs...

STATION/POSITION TIME  TEMP    WIND        PRES    VSBY  WAVE
                       AIR SEA DIR/SP/G                  HT/PER
                 (UTC) (F)     (DEG/KT/KT) (MB)    (MI)  (FT/S)
KEATON BEACH     1200   70      40/  7/ 10 1015.1R
CEDAR KEY        1100   71      40/  4/  5 1014.5R
C TOWER          1200   77      50/ 14/ 16 1014.0R
APALACHICOLA BUO 1200   79 84   80/ 14/ 17 1013.2R         4/ 6
PANAMA CITY BUOY NOT AVBL
MOBILE BUOY      1120   82 84   90/ 19/ 25 1013.7R         6/ 7
ORANGE BCH AL BU 1200   80 85   80/ 17/ 21 1014.3R         5/ 7
$$



USA.gov is the U.S. government's official web portal to all federal, state and local government web resources and services.